TimeMST,TemperatureF,Dew PointF,Humidity,Sea Level PressureIn,VisibilityMPH,Wind Direction,Wind SpeedMPH,Gust SpeedMPH,PrecipitationIn,Events,Conditions,WindDirDegrees,DateUTC
12:58 AM,80.6,40.1,24,29.78,10.0,SW,12.7,-,N/A,,Clear,230,2013-05-16 07:58:00
1:58 AM,79.3,38.3,23,29.78,10.0,SSW,12.7,-,N/A,,Clear,210,2013-05-16 08:58:00
2:58 AM,78.4,36.0,22,29.78,10.0,SSW,12.7,-,N/A,,Clear,200,2013-05-16 09:58:00
3:58 AM,75.0,36.3,25,29.79,10.0,South,3.5,-,N/A,,Clear,190,2013-05-16 10:58:00
4:58 AM,73.2,36.9,27,29.80,10.0,East,2.3,-,N/A,,Clear,100,2013-05-16 11:58:00
5:58 AM,67.8,41.4,38,29.82,10.0,Calm,Calm,-,N/A,,Clear,0,2013-05-16 12:58:00
6:58 AM,74.5,39.7,29,29.84,10.0,North,1.2,-,N/A,,Clear,360,2013-05-16 13:58:00
7:58 AM,81.0,36.3,20,29.84,10.0,East,5.8,-,N/A,,Clear,90,2013-05-16 14:58:00
8:58 AM,84.9,36.0,17,29.84,10.0,Variable,5.8,-,N/A,,Clear,0,2013-05-16 15:58:00
9:58 AM,87.1,38.5,18,29.83,10.0,Variable,5.8,-,N/A,,Clear,0,2013-05-16 16:58:00
10:58 AM,89.4,33.8,14,29.82,10.0,South,4.6,-,N/A,,Clear,180,2013-05-16 17:58:00
11:58 AM,91.4,34.9,14,29.79,10.0,SE,2.3,-,N/A,,Clear,130,2013-05-16 18:58:00
12:58 PM,95.4,33.6,11,29.77,10.0,SSE,6.9,18.4,N/A,,Clear,150,2013-05-16 19:58:00
1:58 PM,95.7,26.2,8,29.74,10.0,SW,5.8,-,N/A,,Clear,220,2013-05-16 20:58:00
2:58 PM,98.1,24.6,7,29.72,10.0,SW,16.1,26.5,N/A,,Clear,220,2013-05-16 21:58:00
3:58 PM,98.6,25.0,7,29.69,10.0,WSW,16.1,24.2,N/A,,Clear,240,2013-05-16 22:58:00
4:58 PM,98.8,21.6,6,29.67,10.0,SW,17.3,23.0,N/A,,Clear,220,2013-05-16 23:58:00
5:58 PM,97.3,20.5,6,29.67,10.0,SSW,16.1,-,N/A,,Clear,210,2013-05-17 00:58:00
6:58 PM,94.1,18.0,6,29.66,10.0,SSW,12.7,-,N/A,,Clear,210,2013-05-17 01:58:00
7:58 PM,88.2,23.2,9,29.68,10.0,SSW,10.4,-,N/A,,Clear,210,2013-05-17 02:58:00
8:58 PM,83.5,28.9,14,29.70,10.0,SW,6.9,-,N/A,,Clear,230,2013-05-17 03:58:00
9:58 PM,80.8,27.1,14,29.72,10.0,SW,8.1,-,N/A,,Clear,220,2013-05-17 04:58:00
10:58 PM,80.6,24.4,13,29.73,10.0,SW,9.2,-,0.00,,Clear,220,2013-05-17 05:58:00
11:58 PM,78.4,24.3,13,29.72,10.0,SW,9.2,-,N/A,,Clear,220,2013-05-17 06:58:00